Temperature
17 17 17 17 18 18 18 18 18 18 18 18 17 18 18 18 18 18 18 18 18 18 18 18 18 18 18 18 18 18 18 18 18 18 18 18 18 18 18 18 18 18 18
17 17 17 18 18 18 18 18 18 18 18 18 17 17 17 18 18 18 18 18 18 18 18 18 18 18 18 17 17 18 17 18 18 17 17 18 18 18 18 18 18 18 18
18 18 17 17 17 17 17 18 18 17 18 18 18 18 17 17 17 17 17 17 17 18 18 17 17 17 17 17 17 17 17 17 17 17 17 17 17 17 17 18 18 18 17
18 18 17 17 17 17 17 17 18 18 18 18 18 18 17 17 17 17 17 17 17 17 17 17 17 17 17 17 17 17 17 17 17 17 17 17 17 17 17 17 17 17 17
18 18 17 17 17 17 17 17 18 18 18 17 17 17 17 17 17 17 17 17 17 17 17 17 17 17 17 17 17 17 17 17 17 17 17 17 17 17 17 17 17 17 17
18 18 17 17 17 17 17 17 17 17 17 17 17 17 17 17 17 17 17 17 17 17 17 17 17 17 17 17 17 17 17 17 17 17 17 17 17 17 17 17 17 17 17
17 17 17 17 17 17 17 17 17 17 17 17 17 17 17 17 17 17 17 17 17 17 17 17 17 17 17 17 17 17 17 17 17 17 17 17 17 17 17 17 17 17 17
17 17 17 17 17 17 17 17 17 17 17 17 17 17 17 17 17 17 17 17 17 17 17 17 16 16 16 16 16 16 16 16 16 16 16 17 17 17 17 17 17 17 17
17 17 17 17 17 17 17 17 17 17 17 16 16 16 16 16 16 16 16 16 16 16 16 16 16 16 16 16 16 16 16 16 16 16 16 16 16 16 16 16 16 16 16
17 17 17 17 17 17 17 17 16 16 16 16 16 16 16 16 16 16 16 16 16 16 16 16 16 16 16 16 16 16 16 16 16 16 16 16 16 16 16 16 16 16 16
17 17 17 17 17 17 17 16 16 16 16 16 16 16 16 16 16 16 16 16 16 16 16 16 16 16 16 16 16 16 16 16 16 16 16 16 16 16 16 16 16 16 16
17 17 17 17 17 17 16 16 16 16 16 16 16 16 16 16 16 16 16 16 16 16 16 16 15 16 16 16 16 16 16 16 16 15 15 15 16 16 16 16 16 16 16
17 17 17 17 17 16 16 16 16 16 16 16 16 16 16 16 16 16 16 16 16 15 15 15 15 15 15 15 15 15 15 15 15 15 15 15 15 15 15 15 15 15 15
17 17 17 17 17 16 16 16 16 16 16 16 16 16 16 16 16 16 15 15 15 15 15 15 15 15 15 15 15 15 15 15 15 15 15 15 15 15 15 15 15 15 15
17 17 16 16 16 16 16 16 16 16 16 16 16 16 15 15 16 15 15 15 15 15 15 15 15 15 15 15 15 15 15 15 15 15 15 14 15 15 15 15 15 15 15
17 17 17 16 16 16 16 16 16 16 16 16 16 16 15 15 15 15 15 15 15 15 15 15 15 15 15 15 15 15 14 14 14 14 14 14 14 14 14 14 14 14 14
17 17 17 16 16 16 16 16 16 16 16 16 15 15 15 15 15 15 15 15 15 15 15 15 15 15 15 14 14 14 14 14 14 14 14 14 14 14 14 14 14 14 14
17 17 17 16 16 16 16 16 16 15 15 15 15 15 15 15 15 15 15 15 15 15 15 15 15 15 14 14 14 14 14 14 14 13 13 13 13 14 13 13 13 13 13
17 17 17 16 16 16 16 16 15 15 15 15 15 15 15 15 15 15 15 15 15 15 15 15 14 14 14 14 14 14 13 13 13 13 13 13 13 13 13 13 13 13 13
17 17 16 16 16 16 16 15 15 15 15 15 15 15 15 15 14 15 14 14 14 14 14 14 14 14 14 14 14 13 13 13 13 13 13 13 13 13 13 13 13 13 13
17 17 16 16 16 16 16 15 15 15 15 14 14 14 14 14 14 14 14 14 14 14 14 14 14 14 13 13 13 13 13 13 13 12 12 13 13 12 12 12 12 12 12
17 16 16 16 16 16 15 15 15 15 14 14 14 14 14 14 14 14 14 14 14 14 14 14 13 13 13 13 13 13 12 12 12 12 12 12 12 12 12 12 12 12 12
16 16 16 16 15 15 15 15 14 14 14 14 14 14 14 14 13 13 13 13 13 13 13 13 13 13 13 13 13 12 12 12 11 11 12 12 12 12 12 11 11 11 11
16 16 16 15 15 15 15 14 14 14 14 14 13 13 13 13 13 13 13 13 13 13 13 13 13 12 12 12 12 12 12 12 11 11 11 11 11 11 11 11 11 11 11
16 15 15 15 15 15 14 14 14 14 14 13 13 13 13 13 13 13 12 12 12 12 12 12 12 12 12 12 12 12 12 11 11 11 10 10 11 11 11 11 11 11 11
15 15 15 15 15 14 14 14 14 13 13 13 13 13 13 12 12 12 12 12 12 12 12 12 12 12 11 11 11 11 11 11 11 11 10 10 10 10 10 10 10 10 10
Wind_Speed
0 1 5 6 8 8 9 9 9 9 9 10 10 10 11 11 11 11 11 10 10 10 10 9 9 9 8 8 8 7 7 7 6 7 7 7 7 7 7 7 7 5 7
3 3 6 6 7 8 9 9 10 9 9 10 10 10 11 11 11 11 10 10 10 10 9 9 8 8 8 8 8 7 7 7 7 7 7 6 6 7 7 7 7 6 7
4 4 6 7 7 8 9 9 9 9 10 10 10 11 11 10 10 10 10 10 10 10 9 8 8 8 8 8 7 7 7 7 7 8 7 5 5 6 6 6 6 7 7
5 5 6 7 8 8 9 9 9 9 10 10 10 10 10 10 10 10 10 10 10 10 9 9 9 8 8 8 7 7 7 7 7 8 6 5 5 6 6 6 6 7 7
5 5 6 8 9 9 9 9 9 9 10 10 10 10 10 10 10 10 10 10 10 10 9 9 9 9 8 8 8 7 7 8 9 8 7 6 5 7 7 7 7 7 7
5 5 7 8 9 9 9 9 9 10 9 10 9 9 10 10 10 10 10 10 9 9 9 8 9 8 8 7 7 7 7 8 8 7 6 5 5 6 7 7 7 7 7
4 4 7 9 10 9 9 10 10 10 10 10 9 9 10 10 10 10 10 10 9 8 8 8 8 8 8 7 7 7 7 8 7 6 6 5 5 6 7 7 7 7 7
6 4 7 9 10 10 9 10 10 10 10 10 9 10 10 10 10 10 10 9 9 9 8 8 8 8 8 7 8 7 7 7 7 7 6 5 6 7 7 8 8 8 7
6 5 6 7 8 9 9 9 9 9 10 10 10 10 9 9 9 9 8 8 8 8 8 8 7 7 7 7 8 8 8 8 7 6 6 6 7 8 8 9 9 9 8
5 4 4 5 6 6 6 7 7 8 8 8 9 10 10 8 7 7 7 7 8 8 8 8 7 7 7 8 9 11 11 10 8 7 5 7 8 9 9 9 9 9 9
4 3 3 4 4 4 4 5 5 6 7 7 7 8 8 7 6 5 6 7 7 7 8 8 9 8 8 8 10 11 10 8 8 6 6 9 10 9 9 10 10 9 9
4 3 3 3 3 3 4 4 4 5 6 6 6 6 6 6 6 6 7 8 8 7 8 9 9 9 8 7 9 10 8 9 7 6 7 10 10 10 10 10 10 9 9
4 4 3 4 4 4 3 4 4 5 5 5 5 5 5 5 5 6 5 6 6 7 7 7 8 7 7 6 6 7 8 7 6 6 8 11 10 10 10 10 10 10 10
5 4 4 4 4 4 4 4 4 4 4 4 4 5 5 4 4 4 4 4 5 5 5 5 5 6 6 6 7 7 7 6 6 6 7 10 10 10 10 10 10 10 10
5 4 5 5 4 4 4 3 4 4 4 4 4 5 6 4 2 3 3 4 4 5 5 5 5 5 5 6 7 7 7 7 7 6 6 9 9 10 10 11 10 10 10
4 4 4 5 4 5 4 3 3 4 5 5 5 5 6 5 4 3 3 3 4 5 5 5 5 4 4 4 5 6 6 6 6 6 6 7 9 9 10 10 11 10 11
4 4 5 6 5 5 4 4 5 5 6 5 6 7 7 7 6 5 3 3 4 5 5 5 6 5 4 5 5 4 4 5 6 6 6 6 7 8 9 10 10 10 10
4 5 5 6 6 5 5 5 5 5 6 6 6 7 8 8 8 6 4 3 4 5 4 3 4 4 4 4 4 4 4 4 5 5 6 6 6 6 8 9 10 10 10
5 5 5 5 6 6 6 5 6 6 6 6 6 6 7 7 8 6 4 4 5 5 4 3 4 3 4 4 3 4 4 3 3 5 5 5 6 6 7 8 9 10 9
6 6 6 6 5 5 5 5 5 5 4 5 5 5 6 6 7 6 5 5 5 4 4 4 4 4 3 3 4 4 4 4 3 3 4 4 5 6 7 7 6 7 9
5 6 6 6 5 5 3 3 3 2 2 2 4 5 6 6 6 6 5 4 4 4 4 3 3 4 4 3 4 4 4 5 5 4 4 4 5 6 7 7 6 6 6
5 5 5 5 5 5 4 3 2 2 2 1 3 4 5 6 5 5 5 3 3 4 5 4 4 3 3 3 3 3 3 4 5 5 4 4 4 5 5 6 6 6 6
4 4 5 5 5 5 5 4 3 3 3 3 2 2 3 5 5 6 5 4 4 4 3 3 3 3 2 2 2 3 3 1 1 3 4 4 4 3 3 4 4 5 5
4 4 4 4 5 5 6 6 6 4 2 1 1 1 2 4 5 6 5 5 4 3 3 2 3 2 2 1 2 2 2 3 2 1 3 3 3 3 3 3 3 4 5
4 4 4 4 4 4 5 6 6 4 2 1 1 2 2 3 4 5 4 4 4 3 2 3 3 3 2 2 1 1 2 2 2 2 1 2 3 3 3 1 2 3 4
3 3 4 4 3 3 4 5 6 5 4 3 2 2 1 1 2 3 4 4 3 3 2 2 2 3 2 2 2 2 1 1 0 1 1 1 1 2 3 2 1 2 3
Wind_Direction
203 153 99 85 81 77 74 75 75 80 81 82 81 79 80 83 85 85 84 85 84 85 84 85 89 90 91 93 95 96 94 89 91 90 93 91 91 90 94 95 92 89 95
159 120 105 94 88 83 80 80 77 78 84 85 83 80 80 81 84 84 82 83 84 85 84 83 86 91 92 92 91 93 92 91 88 83 81 78 85 89 92 92 93 93 94
124 112 107 99 93 88 86 85 81 80 84 85 83 81 80 80 82 84 82 83 85 83 82 83 83 86 92 94 91 91 90 90 92 85 74 66 78 89 90 89 92 92 91
126 117 108 99 98 93 89 85 84 82 85 86 84 83 81 80 81 82 84 85 83 82 80 79 80 84 88 88 88 89 87 89 93 88 73 65 71 88 89 91 91 90 89
119 119 115 102 97 95 94 90 86 85 86 88 87 86 84 82 82 82 83 84 83 82 80 77 78 82 84 84 82 84 87 94 97 91 78 70 69 83 86 86 86 87 89
118 121 119 112 103 97 93 91 89 88 87 88 89 88 86 84 83 84 82 82 83 81 80 78 78 79 79 76 74 75 85 98 99 90 82 76 74 87 87 84 88 86 87
125 127 124 117 108 100 94 90 89 90 89 89 87 85 87 85 84 84 82 79 79 79 79 79 78 76 72 69 69 70 85 101 95 90 80 75 79 89 91 87 89 87 86
129 124 123 123 115 107 99 93 88 87 89 91 88 85 86 85 84 84 83 78 75 75 75 76 74 72 69 69 66 66 83 99 99 95 83 79 87 92 95 88 82 80 83
118 111 113 120 118 113 106 100 96 90 89 89 86 83 83 85 84 82 81 75 71 70 71 69 66 69 67 65 63 67 82 95 95 92 88 84 87 89 92 91 84 79 78
102 105 111 117 116 114 112 109 102 96 92 89 87 83 77 77 79 78 78 76 72 68 67 61 56 57 57 59 66 73 85 92 92 86 82 85 89 90 92 91 88 82 79
108 114 113 119 122 124 120 113 102 96 93 89 84 85 76 64 62 64 70 73 71 67 63 59 55 57 55 55 65 74 78 85 88 81 81 87 90 90 92 92 89 84 80
133 137 131 128 129 125 114 94 81 83 84 81 77 78 72 69 62 60 63 60 59 60 56 55 56 54 53 55 59 70 79 82 78 77 80 86 89 89 89 91 88 84 81
146 138 139 131 128 119 99 92 79 77 76 69 71 74 76 70 62 57 52 46 41 44 43 46 52 53 53 57 63 73 79 81 79 77 77 79 84 87 87 88 84 82 81
130 130 137 135 120 115 102 90 84 81 75 63 62 80 91 79 68 61 53 39 39 43 43 46 51 53 56 60 70 75 76 79 79 76 76 76 77 80 81 86 82 81 81
131 137 139 134 127 113 100 96 89 80 79 77 70 76 91 89 84 67 59 54 49 52 56 53 49 52 56 60 67 75 73 74 73 75 76 76 74 77 77 79 80 80 76
136 139 135 128 118 108 104 100 93 82 75 70 66 71 83 87 83 80 65 52 48 51 60 63 59 60 55 60 61 67 72 79 77 79 75 69 69 74 78 80 80 78 74
142 129 125 127 112 110 110 105 93 81 80 71 63 67 75 82 82 79 72 52 43 55 61 62 55 57 59 57 55 60 70 77 81 77 75 67 63 70 80 81 78 74 71
139 131 128 128 118 112 105 97 90 83 77 72 68 68 70 77 82 79 74 58 52 56 54 65 56 58 54 54 49 46 54 62 72 80 78 68 62 63 70 78 76 71 67
144 130 117 120 125 118 106 95 86 78 71 70 69 63 68 75 81 82 76 59 61 60 50 64 60 67 66 57 58 52 46 49 50 68 65 66 67 70 69 70 72 70 67
140 126 120 117 118 111 100 86 73 68 63 64 66 62 69 72 77 81 78 60 63 64 51 55 69 60 68 64 69 53 36 39 44 51 55 61 63 70 72 73 71 69 66
128 122 125 124 124 119 111 105 96 86 69 59 65 66 71 73 76 76 79 70 67 72 63 61 78 68 51 50 67 43 22 30 41 36 36 49 51 61 70 72 71 70 66
139 139 140 143 138 135 136 135 132 123 94 81 57 56 64 74 80 86 88 83 75 74 60 52 67 75 52 50 85 79 31 11 17 21 26 45 44 53 59 65 73 74 69
131 144 146 150 145 141 133 116 95 68 52 41 38 34 43 76 83 86 92 91 86 85 81 62 68 86 86 30 66 115 121 181 333 358 17 29 28 34 34 59 64 69 71
153 149 143 143 141 138 133 129 128 125 129 175 156 77 41 66 77 86 90 91 89 85 89 83 73 75 99 82 16 41 123 154 140 354 348 0 11 23 15 38 52 58 60
155 147 146 134 128 134 137 141 137 134 145 131 87 80 58 45 66 81 90 91 89 88 94 81 71 74 87 107 82 44 53 55 79 139 263 330 351 351 359 15 60 58 56
147 132 124 127 126 138 138 139 147 150 144 126 113 112 97 62 59 70 87 88 90 90 93 93 84 83 82 88 83 81 104 107 135 126 174 267 318 323 343 358 39 49 56
Height
1522 1522 1521 1520 1519 1518 1518 1517 1516 1516 1515 1515 1514 1514 1514 1513 1513 1513 1513 1513 1513 1513 1513 1513 1513 1513 1513 1513 1513 1514 1514 1514 1515 1515 1515 1515 1515 1515 1514 1514 1514 1513 1513
1522 1522 1521 1521 1520 1519 1518 1517 1517 1516 1516 1515 1515 1515 1514 1514 1514 1514 1514 1513 1513 1513 1513 1513 1513 1513 1513 1514 1514 1514 1514 1515 1515 1515 1515 1515 1515 1515 1515 1515 1514 1514 1514
1522 1522 1521 1521 1520 1519 1519 1518 1517 1517 1517 1516 1516 1516 1515 1515 1515 1514 1514 1514 1514 1514 1514 1514 1513 1513 1513 1514 1514 1514 1514 1514 1515 1515 1515 1515 1515 1515 1515 1515 1515 1514 1514
1522 1522 1522 1521 1521 1520 1519 1519 1518 1518 1517 1517 1517 1516 1516 1516 1515 1515 1515 1514 1514 1514 1514 1514 1514 1514 1514 1514 1514 1514 1514 1514 1514 1515 1515 1515 1515 1515 1515 1515 1515 1515 1514
1523 1522 1522 1521 1521 1520 1520 1519 1519 1518 1518 1518 1517 1517 1517 1516 1516 1516 1515 1515 1515 1515 1515 1514 1514 1514 1514 1514 1514 1513 1513 1513 1514 1514 1514 1515 1515 1515 1515 1516 1516 1515 1515
1523 1522 1522 1521 1521 1521 1520 1520 1520 1519 1519 1519 1518 1518 1518 1517 1517 1516 1516 1516 1516 1515 1515 1514 1514 1514 1514 1513 1513 1512 1512 1512 1513 1514 1514 1514 1515 1515 1516 1516 1516 1516 1516
1523 1522 1521 1521 1522 1522 1521 1521 1520 1520 1520 1520 1519 1519 1519 1518 1518 1518 1517 1517 1516 1516 1516 1515 1515 1514 1513 1513 1512 1511 1510 1511 1512 1513 1514 1514 1515 1515 1516 1516 1516 1516 1516
1523 1522 1521 1522 1523 1523 1522 1522 1522 1521 1521 1521 1521 1520 1520 1519 1519 1519 1518 1518 1518 1517 1516 1516 1515 1515 1514 1512 1511 1509 1507 1509 1511 1512 1514 1514 1515 1515 1516 1516 1516 1516 1516
1524 1523 1523 1523 1524 1524 1524 1524 1523 1523 1523 1523 1522 1522 1521 1521 1520 1520 1519 1519 1519 1518 1517 1517 1516 1515 1514 1513 1510 1506 1503 1506 1509 1512 1514 1515 1515 1516 1516 1516 1516 1517 1517
1526 1526 1525 1525 1525 1525 1525 1525 1525 1525 1524 1524 1523 1523 1523 1522 1522 1521 1521 1520 1520 1519 1518 1518 1517 1516 1515 1513 1511 1506 1504 1506 1509 1512 1515 1515 1516 1516 1516 1516 1517 1517 1517
1528 1528 1527 1527 1527 1527 1527 1527 1526 1526 1526 1525 1525 1524 1524 1523 1523 1523 1522 1521 1521 1520 1519 1519 1518 1517 1516 1514 1513 1510 1509 1509 1511 1514 1516 1516 1517 1517 1517 1517 1517 1517 1517
1529 1529 1529 1528 1528 1528 1528 1528 1528 1527 1527 1526 1526 1526 1525 1525 1524 1523 1523 1522 1522 1521 1520 1520 1519 1518 1517 1516 1515 1514 1513 1513 1514 1516 1517 1517 1517 1517 1517 1517 1517 1518 1517
1530 1530 1530 1530 1530 1529 1529 1529 1529 1528 1528 1528 1527 1527 1526 1526 1525 1524 1524 1523 1523 1522 1522 1521 1520 1519 1518 1517 1517 1516 1516 1516 1517 1517 1518 1518 1519 1518 1518 1518 1518 1518 1518
1530 1531 1531 1531 1531 1530 1530 1530 1530 1529 1529 1529 1528 1528 1527 1526 1526 1525 1525 1524 1524 1523 1523 1522 1521 1521 1520 1519 1519 1518 1518 1518 1519 1519 1519 1519 1519 1519 1519 1519 1519 1519 1518
1531 1531 1531 1531 1531 1531 1531 1531 1531 1530 1530 1530 1529 1529 1528 1527 1527 1526 1526 1525 1525 1524 1524 1523 1523 1522 1522 1521 1521 1520 1520 1520 1520 1520 1520 1520 1520 1520 1520 1520 1519 1519 1519
1531 1531 1531 1532 1532 1532 1532 1531 1531 1531 1531 1531 1530 1529 1529 1528 1528 1527 1527 1526 1526 1525 1525 1524 1524 1523 1523 1523 1522 1522 1522 1522 1521 1521 1521 1521 1521 1521 1521 1521 1520 1520 1519
1530 1531 1531 1531 1532 1532 1532 1532 1532 1532 1531 1531 1530 1530 1529 1529 1528 1528 1527 1527 1526 1526 1525 1525 1525 1525 1524 1524 1523 1523 1523 1523 1523 1523 1523 1522 1522 1522 1522 1521 1521 1520 1520
1530 1530 1531 1531 1532 1532 1532 1532 1532 1532 1531 1531 1531 1530 1530 1529 1529 1528 1528 1527 1527 1526 1526 1525 1525 1525 1524 1524 1524 1524 1524 1524 1524 1523 1523 1523 1523 1523 1522 1522 1521 1521 1521
1530 1530 1531 1531 1531 1532 1532 1532 1532 1532 1532 1531 1531 1531 1530 1530 1529 1528 1528 1527 1527 1526 1526 1525 1525 1525 1525 1525 1525 1525 1525 1524 1524 1524 1524 1524 1523 1523 1523 1523 1522 1522 1521
1529 1530 1530 1531 1531 1531 1532 1532 1532 1532 1532 1532 1531 1531 1530 1530 1529 1528 1528 1527 1527 1527 1526 1526 1525 1525 1525 1525 1525 1525 1525 1525 1525 1525 1524 1524 1524 1523 1523 1523 1523 1522 1521
1528 1529 1530 1530 1531 1531 1531 1531 1531 1531 1531 1531 1531 1531 1530 1529 1529 1528 1528 1527 1527 1527 1526 1526 1525 1525 1525 1525 1525 1525 1526 1526 1526 1526 1525 1525 1524 1524 1524 1523 1523 1522 1522
1527 1528 1529 1529 1530 1530 1530 1531 1531 1531 1531 1531 1531 1530 1530 1529 1529 1528 1527 1527 1527 1527 1526 1526 1526 1525 1525 1526 1526 1525 1526 1527 1527 1527 1526 1526 1525 1524 1524 1523 1523 1522 1522
1526 1527 1528 1528 1529 1529 1529 1530 1530 1530 1530 1530 1530 1529 1529 1529 1528 1527 1527 1527 1526 1526 1526 1526 1526 1525 1525 1525 1526 1526 1526 1526 1526 1527 1526 1526 1525 1524 1524 1523 1523 1522 1521
1525 1526 1527 1527 1528 1528 1528 1528 1529 1528 1528 1529 1529 1529 1528 1528 1527 1527 1526 1526 1526 1526 1525 1525 1525 1525 1525 1524 1525 1525 1525 1525 1525 1526 1526 1525 1525 1524 1524 1523 1522 1521 1521
1524 1525 1526 1526 1527 1527 1527 1528 1528 1528 1528 1528 1528 1528 1528 1527 1527 1526 1526 1525 1525 1525 1525 1525 1524 1524 1524 1524 1524 1524 1524 1524 1524 1524 1524 1524 1524 1524 1523 1523 1522 1521 1520
1523 1524 1525 1525 1525 1526 1526 1526 1526 1526 1526 1527 1527 1526 1526 1526 1526 1525 1525 1525 1525 1524 1524 1524 1524 1524 1523 1523 1523 1523 1523 1523 1523 1523 1522 1522 1522 1522 1522 1522 1521 1520 1520